Clearfield, PA

12:58 PM EST on December 11, 2017 (GMT -0500)
Clearfield-Lawrence

Weather History for KFIG - March, 2013

Change the Weather History Date:

Friday, March 8, 2013

  Actual Average (KDUJ) Record (KDUJ)
Temperature  
Mean Temperature 35 °F -  
Max Temperature 42 °F 39 °F 68 °F (1987)
Min Temperature 28 °F 22 °F -5 °F (1986)
Degree Days  
Heating Degree Days 30    
Moisture  
Dew Point 22 °F    
Average Humidity 65    
Maximum Humidity 86    
Minimum Humidity 45    
Precipitation  
Precipitation 0.00 in - - ()
Sea Level Pressure  
Sea Level Pressure 30.29 in    
Wind  
Wind Speed 10 mph (NNW)    
Max Wind Speed 18 mph    
Max Gust Speed 30 mph    
Visibility 10 miles    
Events Snow    
Averages and records for this station are not official NWS values.
T = Trace of Precipitation, MM = Missing Value Source: NWS Daily Summary

Daily Weather History Graph

Daily Weather History Graph

Search for Another Location

Airport or City:

Trip Planner

Search our weather history database for the weather conditions in past years. The results will help you decide how hot, cold, wet, or windy it might be!

Date:

Astronomy

Mar. 08, 2013 Rise Set
Actual Time 6:36 AM EST 6:12 PM EST
Civil Twilight 6:08 AM EST 6:40 PM EST
Nautical Twilight 5:37 AM EST 7:12 PM EST
Astronomical Twilight 5:05 AM EST 7:44 PM EST
Moon 4:20 AM EST (3/8) 3:04 PM EST (3/8)
Length of Visible Light 12h 31m
Length of Day
11h 36m
Waning Crescent, 12% of the Moon is Illuminated
Mar 8
Waning Crescent
Mar 11
New
Mar 19
First Quarter
Mar 27
Full
Apr 3
Last Quarter

Hourly Weather History & Observations

Time (EST) Temp. Windchill Dew Point Humidity Pressure Visibility Wind Dir Wind Speed Gust Speed Precip Events Conditions
12:11 AM 30.2 °F 23.4 °F 26.6 °F 86% 30.17 in 10.0 mi NNW 6.9 mph - N/A   Overcast
12:54 AM 30.9 °F 24.3 °F 25.0 °F 79% 30.21 in 10.0 mi NW 6.9 mph - N/A   Overcast
1:54 AM 30.0 °F 20.5 °F 24.1 °F 79% 30.22 in 10.0 mi NNW 11.5 mph 19.6 mph N/A   Clear
2:54 AM 30.0 °F 20.5 °F 23.0 °F 75% 30.20 in 10.0 mi NW 11.5 mph 19.6 mph N/A   Overcast
3:17 AM 30.2 °F 21.3 °F 24.8 °F 80% 30.17 in 4.0 mi NW 10.4 mph - 0.00 in Snow Light Snow
3:24 AM 30.2 °F 21.9 °F 24.8 °F 80% 30.17 in 7.0 mi NW 9.2 mph - 0.00 in Snow Light Snow
3:54 AM 30.0 °F 19.5 °F 25.0 °F 82% 30.21 in 8.0 mi NW 13.8 mph 18.4 mph 0.00 in Snow Light Snow
4:54 AM 30.0 °F 23.2 °F 24.1 °F 79% 30.23 in 9.0 mi NNE 6.9 mph 16.1 mph 0.00 in Snow Light Snow
5:54 AM 30.0 °F 18.7 °F 21.0 °F 69% 30.26 in 10.0 mi North 16.1 mph 28.8 mph 0.00 in   Overcast
6:54 AM 30.0 °F 19.5 °F 19.0 °F 64% 30.28 in 10.0 mi North 13.8 mph 21.9 mph N/A   Overcast
7:54 AM 30.0 °F 22.4 °F 21.0 °F 69% 30.31 in 10.0 mi NNW 8.1 mph - N/A   Overcast
8:54 AM 30.9 °F 19.8 °F 19.9 °F 64% 30.31 in 10.0 mi North 16.1 mph 24.2 mph 0.00 in   Overcast
9:54 AM 32.0 °F 20.5 °F 19.0 °F 59% 30.32 in 10.0 mi NNW 18.4 mph 26.5 mph N/A   Overcast
10:54 AM 34.0 °F 23.0 °F 19.9 °F 56% 30.32 in 10.0 mi North 18.4 mph 29.9 mph N/A   Mostly Cloudy
12:54 PM 37.9 °F 29.6 °F 23.0 °F 55% 30.29 in 10.0 mi NNW 13.8 mph 21.9 mph N/A   Scattered Clouds
1:54 PM 39.0 °F 30.3 °F 23.0 °F 53% 30.29 in 10.0 mi NNW 16.1 mph 25.3 mph N/A   Clear
2:54 PM 41.0 °F 35.2 °F 21.9 °F 47% 30.29 in 10.0 mi North 9.2 mph 19.6 mph N/A   Clear
3:54 PM 41.0 °F 33.1 °F 21.9 °F 47% 30.29 in 10.0 mi North 15.0 mph 20.7 mph N/A   Clear
4:54 PM 42.1 °F 39.2 °F 21.9 °F 45% 30.31 in 10.0 mi Variable 4.6 mph - N/A   Clear
5:54 PM 39.0 °F 32.3 °F 21.0 °F 49% 30.33 in 10.0 mi NNW 10.4 mph - N/A   Clear
6:54 PM 37.0 °F 29.8 °F 21.0 °F 52% 30.35 in 10.0 mi NW 10.4 mph - N/A   Clear
7:54 PM 35.1 °F 28.6 °F 21.0 °F 57% 30.37 in 10.0 mi NNW 8.1 mph - N/A   Clear
8:54 PM 33.1 °F - 19.9 °F 59% 30.38 in 10.0 mi Calm Calm - N/A   Clear
9:54 PM 32.0 °F - 19.9 °F 61% 30.39 in 10.0 mi Calm Calm - N/A   Clear
10:54 PM 28.9 °F 25.2 °F 19.9 °F 69% 30.38 in 10.0 mi NNW 3.5 mph - N/A   Clear
11:54 PM 28.9 °F 25.2 °F 19.9 °F 69% 30.38 in 10.0 mi NW 3.5 mph - N/A   Clear